DELTA 1 DEB, 10646

Orbit data source: Space-Track

DELTA 1 DEB, 10646 is space debris in SSO originally from a launch on Thu, 29 Jul 1976 UTC launched from the Air Force Western Test Range (AFWTR). Debris objects in space refer to the collection of defunct objects orbiting the Earth. Examples of debris include non-operational satellites, rocket bodies, and fragments generated from explosions, collisions, or faulty payload assembly.

Loading next visibility...
Identifier
10646, 1976-077G
Orbit
SSO
Country
Flag of USUS
Related business
Manufacturer
Unknown
Mission
Spacecraft
Bus & Motor
Unknown
Mass
Unknown
Launch date (UTC)
1976-07-29 (49 years ago)
Launch vehicle
Unknown
Launch site
Air Force Western Test Range (AFWTR)
Object type
Payload
Rocket body
Debris
Shape & HBR
Unknown shape, 0.4 m
Radar Cross Section
Medium (>0.1 m² and <1 m²)

Expand to show TLE details & history
Last TLE update: 17 hours ago

TLE from 17 hours ago
0 DELTA 1 DEB
1 10646U 76077G   25292.15142459 -.00000010  00000-0  33728-3 0  9993
2 10646 102.6201 241.5543 0144181  59.5843 321.1666 12.14456243183074
Epoch: 2025-10-19T03:38Z
TLE epoch observation values (Epoch: 2025-10-19T03:38:03.084Z)
Latitude
19.20732°
Longitude
154.7175°
Altitude
1,529.683 km
Speed
7.142 km/s
True Right ascension
15h 48m 24s
True Declination
19° 06' 40"
Sunlit
Object was in daylight at epoch
Visualization orbit readout
Latitude
Unknown
Longitude
Unknown
Altitude
Unknown
Speed
Unknown
Apparent Right ascension
Unknown
Apparent Declination
Unknown
Sunlit
N/A
Visualization observer readout
Local Sidereal Time
15:33:42
Azimuth
Unknown
Elevation
Unknown
Doppler factor
Unknown
Orbital elements
Apogee altitude
1,729.662 km
Perigee altitude
1,499.187 km
Semi-major axis
7,992.561 km
Eccentricity
0.01442
Inclination
102.6201°
RAAN
241.5543°
Arg. of periapsis
59.5843°
True anomaly
320.1159°
Mean anomaly
321.1666°
Eccentric anomaly
320.64273°
Mean motion
3.03749 °/min
Orbital period
118.52 mins
BSTAR
0.00033728
Loading maneuver chart data...
Computing Atmospheric mass density...
Loading historical data...
Loading historical data...
Loading historical data...
Loading historical data...
Loading historical data...
Loading historical data...
Loading historical data...

Documentation

Showing up to 5 results
|